TimeCST,TemperatureF,Dew PointF,Humidity,Sea Level PressureIn,VisibilityMPH,Wind Direction,Wind SpeedMPH,Gust SpeedMPH,PrecipitationIn,Events,Conditions,WindDirDegrees,DateUTC
12:15 AM,26.4,23.9,90,30.57,0.8,Calm,Calm,-,0.02,Snow,Snow,0,2013-11-24 06:15:00
12:35 AM,26.2,23.9,91,30.56,0.8,Calm,Calm,-,0.05,Snow,Snow,0,2013-11-24 06:35:00
12:55 AM,26.2,23.9,91,30.56,0.5,Calm,Calm,-,0.08,Snow,Snow,0,2013-11-24 06:55:00
1:15 AM,25.7,23.7,92,30.56,0.8,Calm,Calm,-,0.03,Snow,Snow,0,2013-11-24 07:15:00
1:35 AM,25.7,23.7,92,30.55,1.8,Calm,Calm,-,0.05,Snow,Light Snow,0,2013-11-24 07:35:00
1:55 AM,25.9,23.9,92,30.55,2.0,Calm,Calm,-,0.05,Snow,Light Snow,0,2013-11-24 07:55:00
2:15 AM,25.9,23.7,92,30.55,4.0,Calm,Calm,-,N/A,Snow,Light Snow,0,2013-11-24 08:15:00
2:35 AM,25.7,23.5,92,30.54,2.5,Calm,Calm,-,N/A,Snow,Light Snow,0,2013-11-24 08:35:00
2:55 AM,25.7,23.4,91,30.54,2.0,East,3.5,-,N/A,Snow,Light Snow,90,2013-11-24 08:55:00
3:15 AM,25.7,23.4,91,30.53,1.8,East,4.6,-,0.01,Snow,Light Snow,80,2013-11-24 09:15:00
3:35 AM,25.7,23.4,91,30.52,0.5,NE,5.8,-,0.02,Snow,Heavy Snow,50,2013-11-24 09:35:00
3:55 AM,25.5,23.0,90,30.51,2.5,NE,5.8,-,0.02,Snow,Light Snow,50,2013-11-24 09:55:00
4:15 AM,25.2,22.8,91,30.50,2.5,ENE,6.9,-,N/A,Snow,Light Snow,60,2013-11-24 10:15:00
4:35 AM,24.8,22.5,91,30.50,3.0,ENE,6.9,-,N/A,Snow,Light Snow,70,2013-11-24 10:35:00
4:55 AM,24.8,22.5,91,30.49,2.5,ENE,3.5,-,N/A,Snow,Light Snow,70,2013-11-24 10:55:00
5:15 AM,24.8,22.5,91,30.49,1.5,ENE,5.8,-,0.01,Snow,Light Snow,60,2013-11-24 11:15:00
5:35 AM,24.8,22.5,91,30.49,2.5,ENE,4.6,-,0.01,Snow,Light Snow,60,2013-11-24 11:35:00
5:55 AM,24.8,22.5,91,30.48,5.0,ENE,5.8,-,0.01,Snow,Light Snow,70,2013-11-24 11:55:00
6:15 AM,24.8,22.6,91,30.47,4.0,ENE,5.8,-,N/A,Snow,Light Snow,70,2013-11-24 12:15:00
6:35 AM,24.8,22.6,91,30.47,0.8,East,4.6,-,0.01,Snow,Snow,80,2013-11-24 12:35:00
6:55 AM,24.8,22.6,91,30.47,1.8,ENE,3.5,-,0.01,Snow,Light Snow,70,2013-11-24 12:55:00
7:15 AM,24.8,22.1,89,30.47,2.5,East,3.5,-,N/A,Snow,Light Snow,80,2013-11-24 13:15:00
7:35 AM,24.8,22.3,90,30.47,1.0,East,3.5,-,N/A,Snow,Light Snow,80,2013-11-24 13:35:00
7:55 AM,24.6,22.3,91,30.45,1.0,East,4.6,-,N/A,Snow,Light Snow,80,2013-11-24 13:55:00
8:15 AM,24.8,22.3,90,30.45,1.2,East,4.6,-,N/A,Snow,Light Snow,90,2013-11-24 14:15:00
8:35 AM,25.0,22.5,90,30.47,3.0,Calm,Calm,-,N/A,Snow,Light Snow,0,2013-11-24 14:35:00
8:55 AM,25.3,22.1,87,30.46,7.0,East,3.5,-,N/A,Snow,Light Snow,100,2013-11-24 14:55:00
9:15 AM,25.3,22.1,87,30.45,7.0,ESE,6.9,-,N/A,Snow,Light Snow,110,2013-11-24 15:15:00
9:35 AM,25.3,22.1,87,30.45,2.0,ESE,4.6,-,N/A,Snow,Light Snow,120,2013-11-24 15:35:00
9:55 AM,25.5,22.1,87,30.44,1.5,ESE,5.8,-,N/A,Snow,Light Snow,120,2013-11-24 15:55:00
10:15 AM,25.9,22.8,88,30.43,0.8,ESE,8.1,-,N/A,Snow,Light Snow,120,2013-11-24 16:15:00
10:35 AM,26.6,23.0,86,30.44,1.8,SE,6.9,-,N/A,Snow,Light Snow,130,2013-11-24 16:35:00
10:55 AM,26.6,22.8,86,30.43,3.0,SE,6.9,-,N/A,Snow,Light Snow,140,2013-11-24 16:55:00
11:15 AM,27.0,23.0,85,30.42,2.0,SE,6.9,-,N/A,Snow,Light Snow,140,2013-11-24 17:15:00
11:35 AM,27.1,23.0,84,30.42,5.0,SSE,5.8,-,N/A,Snow,Light Snow,160,2013-11-24 17:35:00
11:55 AM,27.1,22.3,82,30.41,10.0,South,6.9,-,N/A,,Overcast,190,2013-11-24 17:55:00
12:15 PM,27.3,22.5,82,30.40,10.0,South,5.8,-,N/A,,Overcast,180,2013-11-24 18:15:00
12:35 PM,28.0,23.0,81,30.37,10.0,South,6.9,-,N/A,,Overcast,170,2013-11-24 18:35:00
12:55 PM,28.4,23.0,80,30.35,10.0,South,11.5,-,N/A,,Overcast,190,2013-11-24 18:55:00
1:15 PM,28.4,23.0,80,30.34,10.0,South,12.7,-,N/A,,Overcast,190,2013-11-24 19:15:00
1:35 PM,28.6,23.4,81,30.32,7.0,South,12.7,-,N/A,,Overcast,180,2013-11-24 19:35:00
1:55 PM,28.4,23.9,83,30.31,10.0,South,12.7,-,N/A,,Overcast,170,2013-11-24 19:55:00
2:15 PM,28.4,23.9,83,30.29,10.0,South,12.7,-,N/A,,Overcast,170,2013-11-24 20:15:00
2:35 PM,28.8,23.9,82,30.28,10.0,South,15.0,-,N/A,,Overcast,170,2013-11-24 20:35:00
2:55 PM,28.4,23.7,83,30.28,10.0,South,13.8,-,N/A,,Overcast,190,2013-11-24 20:55:00
3:15 PM,28.4,23.9,83,30.27,10.0,South,13.8,-,N/A,,Overcast,190,2013-11-24 21:15:00
3:35 PM,28.0,23.9,84,30.26,10.0,South,12.7,-,N/A,,Overcast,190,2013-11-24 21:35:00
3:55 PM,27.9,24.3,86,30.26,10.0,South,11.5,-,N/A,,Overcast,180,2013-11-24 21:55:00
4:15 PM,28.0,24.6,87,30.24,10.0,South,12.7,-,N/A,,Overcast,180,2013-11-24 22:15:00
4:35 PM,28.2,24.8,87,30.24,10.0,South,12.7,-,N/A,,Overcast,180,2013-11-24 22:35:00
4:55 PM,28.0,24.6,87,30.23,10.0,South,11.5,-,N/A,,Overcast,190,2013-11-24 22:55:00
5:15 PM,28.0,24.4,86,30.23,10.0,South,10.4,-,N/A,,Overcast,190,2013-11-24 23:15:00
5:35 PM,28.0,24.8,88,30.22,10.0,South,10.4,-,N/A,,Overcast,190,2013-11-24 23:35:00
5:55 PM,28.0,24.4,86,30.22,10.0,South,10.4,-,N/A,,Overcast,190,2013-11-24 23:55:00
6:15 PM,28.0,24.4,86,30.21,10.0,South,10.4,-,N/A,,Overcast,190,2013-11-25 00:15:00
6:35 PM,27.9,24.3,86,30.21,10.0,South,11.5,-,N/A,,Overcast,180,2013-11-25 00:35:00
6:55 PM,27.7,24.4,88,30.20,10.0,South,9.2,-,N/A,,Overcast,190,2013-11-25 00:55:00
7:15 PM,27.9,24.4,87,30.20,10.0,South,9.2,-,N/A,,Overcast,190,2013-11-25 01:15:00
7:35 PM,27.9,24.3,86,30.19,10.0,South,9.2,-,N/A,,Overcast,190,2013-11-25 01:35:00
7:55 PM,27.9,24.4,87,30.19,10.0,South,8.1,-,N/A,,Overcast,190,2013-11-25 01:55:00
8:15 PM,27.7,24.4,88,30.18,10.0,South,10.4,-,N/A,,Overcast,190,2013-11-25 02:15:00
8:35 PM,27.9,24.4,87,30.18,10.0,South,12.7,-,N/A,,Overcast,190,2013-11-25 02:35:00
8:55 PM,28.0,24.4,86,30.18,10.0,South,13.8,-,N/A,,Overcast,190,2013-11-25 02:55:00
9:15 PM,27.9,24.3,86,30.17,10.0,South,10.4,-,N/A,,Overcast,190,2013-11-25 03:15:00
9:35 PM,28.0,24.3,86,30.17,10.0,SSW,11.5,18.4,N/A,,Overcast,200,2013-11-25 03:35:00
9:55 PM,28.2,24.4,86,30.16,10.0,SSW,13.8,19.6,N/A,,Overcast,200,2013-11-25 03:55:00
10:15 PM,28.2,24.8,87,30.15,10.0,SSW,16.1,-,N/A,,Overcast,210,2013-11-25 04:15:00
10:35 PM,28.0,24.6,87,30.14,10.0,SW,16.1,19.6,N/A,,Overcast,220,2013-11-25 04:35:00
10:55 PM,28.2,24.4,86,30.14,10.0,SSW,16.1,24.2,N/A,,Overcast,210,2013-11-25 04:55:00
11:15 PM,28.0,24.1,85,30.13,10.0,SSW,15.0,21.9,N/A,,Overcast,210,2013-11-25 05:15:00
11:35 PM,28.0,23.9,84,30.12,10.0,SW,18.4,25.3,N/A,,Overcast,220,2013-11-25 05:35:00
11:55 PM,28.0,23.9,84,30.11,10.0,SSW,18.4,-,N/A,,Overcast,210,2013-11-25 05:55:00